Location: Newark
(50.2306°N, 14.0814°E)
Time: 19:08:23
(UTC+00:00)

N. Korean satellite - Pass Details

Date: 11 December 2019
Orbit: 454 x 507 km, 97.2° (Epoch: 28 January)

Event Time Altitude Azimuth Distance (km) Brightness Sun altitude
Rises 04:33:13 0° 19° (NNE) 2,557 10.3 -21.1°
Reaches altitude 10° 04:35:26 10° 28° (NNE) 1,662 9.5 -20.8°
Maximum altitude 04:38:45 37° 97° (E) 760 8.1 -20.2°
Drops below altitude 10° 04:42:00 10° 166° (SSE) 1,621 9.5 -19.7°
Sets 04:44:08 0° 175° (S) 2,483 10.4 -19.4°
